Temperature
9 7 7 8 8 9 9 9 9 10 11 10 10 10 11 11 11 10 11 12 12 13 13 13 13 12 12 12 12 11 11 11 11 11 10 10 10 10 10 10 10 10 10 9
7 7 8 9 9 9 9 9 9 10 10 10 9 10 10 10 10 11 11 11 12 13 13 13 12 12 12 12 11 11 11 11 11 10 10 10 10 10 10 9 9 9 9 9
7 7 8 9 9 9 8 8 9 9 10 10 9 9 9 10 10 11 11 12 12 12 12 12 12 12 12 11 11 11 11 11 10 10 10 9 9 9 9 9 9 9 8 8
7 8 9 8 8 8 8 9 9 9 8 7 9 7 8 9 9 9 10 11 11 12 12 12 12 12 11 12 11 11 11 10 10 10 9 9 9 9 9 9 8 8 8 8
6 7 8 8 8 8 8 9 9 8 8 7 7 7 7 8 8 9 9 10 11 12 12 12 12 12 12 11 11 11 10 10 10 9 9 9 9 9 9 8 8 8 8 8
6 7 8 8 8 9 8 8 7 6 6 7 7 6 7 7 8 9 9 10 10 11 11 11 11 11 11 11 10 10 10 10 9 9 9 9 8 8 8 8 8 7 7 7
6 6 7 7 7 8 8 6 6 6 6 6 6 7 7 8 8 8 9 9 10 10 11 11 11 11 11 10 10 10 9 9 9 9 8 8 8 8 8 8 7 7 7 7
4 5 6 6 6 6 6 6 6 6 6 6 6 6 7 8 8 9 9 9 9 9 10 10 10 10 10 10 10 9 9 9 9 8 8 8 8 8 8 7 7 7 7 7
4 4 5 6 6 6 6 6 6 5 5 5 6 6 7 8 7 7 7 8 8 8 9 9 10 10 10 10 10 9 9 9 8 8 8 8 8 7 7 7 7 7 7 6
4 3 5 5 6 6 6 5 5 5 5 6 7 6 6 7 7 7 6 6 7 8 8 9 9 9 9 9 9 9 9 8 8 8 8 7 7 7 7 7 7 6 6 6
3 3 3 4 5 5 5 5 4 4 4 5 6 6 7 6 6 6 6 6 7 7 7 8 8 8 9 9 9 8 8 8 8 8 7 7 7 7 6 6 6 6 6 6
3 2 2 3 4 5 5 4 4 4 4 4 5 6 7 6 6 6 6 6 7 7 7 7 7 8 8 8 8 8 8 7 7 7 7 7 7 7 6 6 6 6 5 5
3 2 2 3 3 3 3 4 3 3 3 3 4 6 6 5 5 6 6 6 6 6 6 7 7 7 7 7 7 7 7 7 7 7 7 7 7 6 6 6 6 5 5 5
3 1 2 3 3 2 2 3 3 3 3 3 4 5 6 5 5 5 5 5 5 6 6 6 6 6 6 7 7 6 6 6 6 6 6 6 6 6 6 5 5 5 5 4
2 1 1 2 3 3 3 3 3 3 3 3 4 4 5 5 5 5 5 5 5 5 5 5 5 5 6 6 6 6 6 6 6 6 6 6 6 6 5 5 5 5 4 4
1 1 1 2 3 3 3 3 3 3 4 3 4 4 4 4 5 4 4 4 4 4 4 4 4 5 5 5 6 6 5 5 5 5 5 5 5 5 5 5 5 4 4 4
-0 0 1 1 2 3 2 2 3 3 3 3 4 4 3 3 3 3 4 4 4 4 4 4 4 4 4 5 5 5 5 5 5 5 5 5 5 5 4 4 4 4 4 4
-0 -0 -1 0 1 1 3 2 3 3 3 3 3 4 3 3 4 4 4 4 4 4 4 4 4 4 4 4 4 5 5 4 4 4 4 4 4 4 4 4 4 3 3 3
0 -0 -1 -0 1 1 3 2 2 2 2 3 3 3 3 3 3 3 4 4 4 4 4 4 4 4 4 4 4 4 4 4 4 4 4 4 4 3 3 3 3 3 3 3
-0 -1 -1 -1 1 1 3 2 2 2 2 2 2 2 2 2 1 2 3 3 3 3 3 3 3 3 3 4 3 3 3 3 3 3 3 3 3 3 3 3 3 3 2 2
-1 -1 -1 -1 -0 1 2 2 2 2 2 2 2 1 1 1 2 2 2 2 2 3 3 3 3 3 3 3 3 3 3 3 3 3 3 3 2 2 2 2 2 2 2 2
-1 -1 -1 -1 -0 1 1 1 1 1 1 1 1 1 1 1 2 2 2 2 2 2 2 2 2 2 3 2 2 2 2 2 2 2 2 2 2 2 2 2 2 2 2 2
-1 -1 -1 -1 0 0 1 1 1 2 1 1 1 1 1 1 1 1 1 1 1 1 1 1 1 2 2 2 2 2 2 1 1 2 2 1 1 1 1 1 1 1 1 1
-2 -2 -2 -1 -1 -1 -0 0 1 1 1 1 1 1 1 0 0 -0 -0 0 0 1 1 1 1 1 1 1 1 1 1 1 1 1 1 1 1 1 1 1 1 1 0 0
-2 -2 -2 -2 -2 -1 -1 -0 -0 0 0 0 0 0 0 0 -0 -1 -1 -1 -0 -0 -0 -0 -0 -0 -0 0 0 0 0 0 0 1 1 0 0 0 0 0 0 -0 -0 -0
-3 -3 -2 -2 -2 -2 -2 -1 -1 -1 -1 -1 -0 -1 -1 -0 -1 -1 -1 -1 -1 -1 -1 -1 -1 -1 -1 -1 -1 -1 -0 -0 -0 -0 -0 -0 -0 -0 -0 -0 -0 -1 -1 -1
Wind_Speed
3 4 10 12 11 6 6 6 6 6 5 5 9 11 11 7 6 8 9 9 10 11 9 8 10 9 9 9 10 10 9 7 6 4 4 3 2 2 1 1 2 2 2 2
2 8 9 7 7 6 5 4 5 3 3 4 6 10 9 8 8 9 10 10 10 8 6 8 9 9 10 11 11 10 10 9 7 5 4 3 3 2 2 1 1 2 2 1
7 5 5 6 6 7 7 7 6 4 2 1 1 7 7 6 5 6 7 9 9 11 11 11 11 11 11 11 12 11 10 9 7 6 4 3 2 2 1 1 1 1 2 1
4 4 4 6 7 7 7 7 6 4 2 3 3 4 7 5 5 7 8 8 9 9 10 10 11 12 12 12 11 10 10 9 7 7 7 6 4 3 3 3 2 2 2 2
5 3 5 7 6 6 5 3 5 4 3 1 2 3 8 3 6 9 9 9 9 9 10 11 12 13 12 11 10 10 9 9 8 8 8 7 4 3 2 2 2 2 2 2
3 1 3 4 3 4 3 4 3 2 2 4 7 6 7 5 8 7 8 7 7 7 8 9 9 10 9 8 9 9 10 8 8 8 7 7 6 4 3 3 3 2 2 2
2 2 1 1 2 1 4 5 2 0 2 7 5 6 8 7 6 7 7 7 5 5 6 6 8 10 10 10 10 9 10 9 8 8 7 7 6 6 6 5 4 3 2 2
2 3 3 1 3 4 6 7 6 6 6 4 3 6 6 5 4 3 4 4 3 3 4 6 8 10 11 11 10 10 10 8 8 8 7 6 6 5 4 4 4 4 4 4
3 3 2 2 1 4 5 5 4 4 2 2 4 5 5 3 2 1 1 2 2 3 3 4 5 8 9 10 10 11 10 8 8 8 6 6 5 5 4 4 3 3 3 3
2 2 2 1 2 2 2 4 3 4 5 4 4 4 4 2 2 1 1 1 1 1 1 1 2 5 7 8 7 8 8 9 7 7 6 5 5 5 4 4 4 3 3 3
1 2 1 1 3 4 2 2 2 3 3 4 3 4 3 3 2 2 2 1 2 2 1 1 1 2 4 5 6 6 6 6 5 6 5 5 5 4 4 4 4 4 3 3
1 2 1 3 3 2 2 4 4 4 3 3 3 4 3 1 0 2 2 1 1 2 1 2 2 3 3 4 4 4 5 5 5 5 5 4 4 4 3 3 3 3 3 3
2 3 2 2 2 2 1 2 3 3 3 3 4 4 3 3 3 2 3 2 2 2 3 3 3 3 2 3 3 3 3 4 4 4 4 4 3 3 3 4 3 3 3 3
1 2 5 7 6 3 4 4 3 4 4 4 6 6 5 2 1 1 2 2 2 2 3 2 2 2 1 1 2 2 2 2 3 3 3 3 3 3 3 3 3 2 2 2
3 2 2 3 4 3 4 6 5 6 7 7 7 6 6 4 3 1 1 2 3 2 2 2 1 2 1 0 1 1 1 2 2 3 3 3 2 2 2 1 2 1 1 2
2 2 1 2 3 2 3 5 6 6 5 6 5 6 5 2 0 1 1 2 2 1 0 0 1 1 1 0 1 1 1 1 2 3 2 2 2 1 1 1 1 1 1 2
1 3 1 1 2 1 4 5 6 4 4 5 7 6 2 1 2 3 2 2 2 2 1 1 1 1 1 1 1 1 1 1 2 2 1 1 1 1 1 1 0 1 1 1
4 3 2 1 2 3 5 1 3 4 4 4 4 3 4 4 3 1 2 3 2 1 1 1 1 1 1 1 0 1 2 2 2 2 1 1 1 1 0 1 0 1 1 2
4 4 2 2 2 5 4 2 1 4 4 3 4 3 1 1 2 1 1 1 1 1 1 1 1 1 1 1 1 2 2 2 3 2 1 1 1 1 1 0 1 1 1 2
2 3 3 2 2 4 4 4 2 2 3 3 2 3 3 2 1 4 2 1 1 1 1 1 1 1 1 1 1 3 2 2 2 1 1 1 1 1 0 0 1 1 1 2
1 1 2 3 3 6 4 4 2 3 5 3 1 2 3 3 4 3 1 1 1 2 2 2 2 1 1 1 2 3 2 1 1 1 2 2 2 1 1 1 1 1 1 2
3 2 3 3 3 6 2 2 2 3 3 1 1 1 1 0 1 1 1 2 2 2 3 3 3 2 2 2 3 3 2 1 1 2 3 2 2 2 2 2 2 1 1 2
3 4 3 5 5 3 1 1 2 1 1 1 0 0 2 1 1 1 2 2 2 2 2 3 3 3 3 3 3 3 1 1 2 3 3 2 2 2 2 1 2 2 1 1
3 1 1 2 3 3 2 2 3 3 2 1 1 1 1 1 2 2 2 2 2 2 3 3 3 3 3 3 3 2 2 2 3 3 2 2 2 2 2 2 1 1 1 2
3 1 1 3 3 3 3 3 3 3 3 3 3 2 2 3 2 2 2 2 2 2 3 3 3 2 2 3 3 3 2 2 3 2 2 2 2 2 2 2 2 2 1 1
1 2 2 4 3 3 4 4 2 2 2 2 2 2 2 2 3 3 2 2 2 3 3 3 3 3 3 3 4 4 3 2 2 2 2 2 2 2 1 2 3 5 4 4
Wind_Direction
174 167 201 205 201 200 180 188 219 235 231 197 223 242 250 240 222 219 215 208 206 210 208 186 178 170 161 161 161 162 159 162 153 148 151 153 168 177 181 175 155 142 132 122
138 223 217 202 206 220 208 212 229 259 238 210 235 255 256 236 224 214 209 210 210 207 196 184 178 173 171 172 171 169 168 167 168 169 168 163 161 178 193 189 153 170 163 153
196 224 194 188 198 213 226 211 208 214 324 348 252 282 259 250 230 226 218 211 206 200 195 189 182 182 178 176 177 176 175 172 171 161 140 115 86 69 78 211 218 228 200 188
223 249 196 193 206 195 231 213 200 188 157 248 177 256 268 242 238 233 230 221 216 208 199 190 183 183 185 184 179 174 173 172 169 159 158 161 169 184 211 205 216 239 226 220
226 214 182 196 207 185 209 198 189 191 173 255 213 214 275 250 235 237 231 223 219 209 198 192 187 185 185 180 175 173 170 171 168 166 168 170 178 192 193 188 207 237 250 240
243 260 182 191 196 181 144 80 61 58 109 241 213 193 265 232 224 229 228 223 216 206 198 193 186 176 175 172 169 169 169 174 172 170 172 177 180 184 178 194 212 235 254 257
313 304 321 113 109 149 134 118 105 194 217 240 200 193 248 245 232 214 214 216 210 197 185 177 176 176 173 170 172 174 174 178 178 175 180 186 186 185 189 199 211 221 241 254
162 239 242 201 177 190 191 162 171 190 205 248 199 219 253 261 251 229 211 200 182 175 184 182 182 180 176 174 174 175 178 180 181 181 187 187 184 186 198 207 209 217 229 238
179 235 288 276 267 152 166 193 176 143 157 198 240 261 296 331 358 22 86 116 166 186 187 185 182 176 175 175 178 179 179 180 184 185 183 184 185 189 201 210 212 220 232 240
153 198 276 286 82 19 150 147 120 149 168 218 242 234 235 270 260 290 121 149 176 160 153 143 164 178 176 175 174 175 177 181 184 183 184 187 188 194 198 200 212 223 235 237
95 140 293 36 190 195 140 141 143 153 175 172 214 249 224 206 216 201 204 182 152 144 128 137 123 143 152 151 156 165 174 174 180 185 185 182 190 193 193 205 217 226 234 236
162 125 189 258 283 272 176 170 148 162 217 200 196 256 304 279 263 141 145 120 100 101 91 90 87 84 109 131 146 161 171 176 186 185 179 181 184 184 194 211 222 226 229 238
157 132 107 348 332 348 212 200 171 147 138 175 189 251 335 28 47 82 107 105 84 80 67 61 62 72 99 133 145 157 168 178 178 166 164 167 179 188 206 218 226 225 224 245
104 144 180 198 224 208 240 251 208 164 185 210 222 243 288 329 5 22 82 91 80 91 88 69 46 44 56 134 152 154 161 165 161 154 160 173 194 202 212 219 224 224 224 244
96 151 201 243 251 232 248 234 216 208 201 203 225 237 261 260 234 209 142 106 85 76 72 71 45 17 13 59 141 150 153 154 150 151 167 193 207 201 193 208 217 218 236 265
78 141 151 294 269 244 262 244 223 224 214 222 239 263 277 275 261 173 161 135 129 153 221 59 45 26 359 312 200 167 157 155 144 158 185 189 178 170 170 190 196 231 273 279
127 140 141 260 303 22 264 238 214 212 214 193 224 240 259 258 197 198 187 168 181 199 217 216 247 261 272 262 208 183 176 137 130 140 159 158 156 154 169 167 142 258 273 283
158 137 141 161 68 228 252 261 198 199 231 210 223 228 215 219 214 204 170 168 186 204 221 261 265 281 303 289 155 130 115 117 117 108 100 104 114 124 133 126 186 285 293 290
178 155 143 154 208 268 287 300 206 195 250 242 231 245 224 172 60 340 339 132 188 236 248 261 278 278 318 4 114 113 100 103 107 102 90 82 105 113 98 174 273 297 319 318
84 123 140 154 184 233 263 300 289 130 262 282 226 226 207 128 197 252 272 40 40 12 4 5 346 356 34 13 96 115 114 108 113 123 122 91 92 99 106 265 299 342 335 312
57 74 165 188 219 258 281 323 58 149 252 297 216 200 187 209 228 234 188 50 61 44 32 33 33 33 16 43 102 112 107 114 129 91 75 63 60 68 58 23 22 10 356 347
182 174 196 177 210 252 313 72 158 241 302 321 189 169 147 68 66 103 105 85 61 46 28 33 46 28 17 59 100 98 84 55 66 69 59 44 36 34 39 51 21 19 13 353
199 198 205 202 220 278 312 218 285 305 308 303 260 61 129 107 128 100 93 86 73 68 40 36 47 36 23 37 86 96 45 62 73 70 55 38 32 36 44 54 30 10 11 350
285 282 204 259 274 305 324 339 343 349 346 351 41 111 127 147 143 119 109 95 81 75 64 56 54 48 28 27 51 69 51 70 83 76 55 40 41 28 22 27 31 16 344 329
253 235 221 253 282 331 332 333 334 359 24 37 35 45 110 129 130 126 114 96 86 71 58 60 64 52 29 33 42 37 41 67 74 67 53 39 35 32 21 21 23 356 309 289
254 226 217 247 261 258 277 304 329 14 11 26 52 36 39 100 118 108 102 85 83 71 59 58 56 47 32 38 33 23 26 57 78 63 45 32 25 20 22 25 10 13 10 360
Height
1452 1456 1457 1455 1457 1458 1461 1463 1464 1462 1459 1461 1462 1460 1456 1456 1457 1457 1457 1458 1460 1461 1465 1468 1471 1474 1477 1479 1481 1483 1485 1488 1490 1491 1492 1493 1494 1496 1497 1497 1497 1498 1497 1497
1455 1454 1451 1453 1455 1457 1459 1462 1463 1460 1458 1460 1461 1458 1454 1453 1453 1452 1453 1454 1456 1458 1461 1464 1467 1470 1472 1474 1477 1480 1482 1484 1487 1488 1490 1491 1493 1494 1494 1495 1495 1495 1495 1495
1451 1449 1448 1451 1454 1457 1458 1460 1461 1460 1459 1458 1460 1459 1453 1450 1449 1449 1449 1450 1452 1454 1456 1459 1462 1465 1468 1470 1473 1475 1478 1481 1484 1486 1488 1489 1490 1491 1492 1492 1492 1493 1493 1492
1449 1446 1446 1449 1451 1453 1457 1454 1456 1458 1464 1467 1464 1469 1454 1450 1448 1446 1446 1446 1447 1449 1451 1454 1457 1460 1463 1466 1469 1472 1475 1478 1481 1483 1484 1485 1486 1487 1488 1489 1490 1490 1490 1490
1447 1445 1445 1447 1448 1450 1453 1451 1454 1458 1463 1468 1466 1471 1457 1449 1447 1444 1442 1442 1442 1444 1446 1449 1452 1455 1459 1462 1465 1469 1472 1475 1477 1479 1481 1483 1484 1485 1486 1487 1487 1487 1488 1487
1445 1444 1444 1444 1446 1447 1450 1453 1457 1462 1466 1469 1463 1467 1457 1450 1442 1439 1438 1438 1438 1440 1442 1445 1448 1452 1455 1459 1462 1465 1468 1471 1474 1476 1478 1479 1481 1482 1483 1483 1484 1484 1484 1484
1448 1445 1444 1444 1447 1449 1450 1459 1467 1469 1472 1467 1458 1459 1451 1440 1436 1434 1434 1434 1435 1437 1439 1441 1444 1447 1451 1455 1458 1462 1464 1467 1470 1472 1474 1476 1478 1479 1479 1480 1480 1481 1481 1481
1452 1450 1446 1445 1446 1448 1449 1454 1463 1465 1467 1463 1457 1457 1445 1435 1432 1431 1432 1433 1434 1435 1436 1438 1441 1444 1447 1451 1454 1458 1461 1463 1466 1469 1471 1473 1474 1475 1476 1477 1477 1477 1477 1477
1451 1450 1445 1444 1443 1445 1449 1452 1453 1461 1465 1463 1458 1451 1440 1433 1432 1431 1431 1431 1432 1433 1435 1437 1439 1442 1444 1448 1451 1454 1457 1460 1463 1465 1467 1469 1471 1472 1473 1474 1474 1474 1474 1474
1446 1451 1446 1444 1443 1445 1446 1448 1455 1459 1460 1455 1449 1448 1445 1436 1434 1432 1432 1432 1432 1433 1434 1435 1437 1439 1442 1445 1448 1452 1455 1457 1459 1462 1464 1465 1467 1468 1469 1470 1470 1471 1471 1470
1445 1451 1451 1447 1446 1446 1448 1450 1452 1457 1456 1456 1453 1447 1436 1434 1432 1433 1432 1432 1432 1433 1434 1435 1437 1438 1441 1443 1446 1449 1452 1454 1456 1458 1460 1462 1463 1465 1466 1466 1467 1467 1467 1466
1444 1450 1454 1451 1447 1445 1445 1448 1452 1456 1459 1458 1455 1448 1433 1432 1432 1432 1433 1433 1434 1434 1435 1435 1437 1438 1440 1442 1444 1447 1449 1451 1453 1455 1457 1458 1460 1461 1462 1463 1463 1463 1463 1463
1443 1449 1454 1453 1453 1450 1448 1447 1449 1453 1457 1460 1455 1446 1433 1433 1433 1433 1433 1434 1434 1434 1435 1436 1437 1438 1439 1441 1443 1445 1447 1449 1451 1452 1454 1455 1456 1457 1458 1459 1459 1460 1459 1459
1439 1447 1448 1449 1445 1448 1449 1447 1447 1449 1454 1454 1448 1442 1436 1435 1434 1434 1434 1434 1435 1435 1436 1436 1437 1437 1439 1440 1442 1443 1445 1447 1448 1450 1451 1452 1453 1454 1455 1455 1456 1456 1456 1455
1439 1447 1446 1443 1441 1443 1442 1442 1442 1444 1445 1447 1442 1440 1436 1435 1435 1435 1435 1435 1435 1435 1436 1436 1437 1437 1438 1439 1440 1441 1443 1445 1446 1447 1448 1449 1450 1451 1452 1452 1452 1452 1452 1451
1441 1446 1445 1444 1440 1440 1440 1439 1439 1439 1439 1440 1439 1438 1434 1434 1434 1435 1434 1434 1435 1436 1436 1436 1436 1436 1437 1438 1439 1440 1441 1442 1443 1444 1445 1446 1447 1448 1448 1449 1449 1449 1448 1448
1444 1446 1448 1447 1442 1440 1442 1437 1436 1437 1435 1436 1436 1435 1434 1434 1434 1434 1434 1434 1434 1435 1435 1435 1435 1435 1436 1437 1438 1438 1439 1440 1441 1442 1443 1443 1444 1445 1445 1446 1445 1445 1445 1444
1443 1446 1450 1450 1447 1449 1437 1432 1431 1432 1432 1432 1431 1430 1431 1432 1432 1433 1433 1433 1433 1434 1434 1434 1434 1434 1435 1436 1436 1437 1438 1438 1439 1439 1440 1441 1441 1442 1442 1442 1442 1442 1441 1440
1438 1444 1450 1451 1449 1443 1434 1432 1431 1432 1431 1429 1429 1429 1429 1430 1430 1431 1432 1432 1433 1433 1433 1433 1433 1433 1433 1434 1434 1435 1435 1436 1436 1437 1438 1438 1438 1439 1439 1439 1439 1439 1438 1437
1439 1442 1448 1451 1448 1443 1433 1429 1427 1429 1431 1427 1427 1427 1428 1428 1432 1430 1429 1430 1431 1431 1431 1431 1431 1431 1431 1431 1432 1432 1433 1433 1434 1435 1435 1436 1436 1436 1436 1437 1436 1436 1435 1434
1444 1446 1449 1450 1448 1439 1431 1428 1427 1434 1431 1425 1424 1425 1425 1426 1427 1427 1427 1427 1428 1428 1429 1429 1429 1429 1429 1429 1430 1430 1430 1431 1432 1432 1433 1434 1434 1434 1434 1434 1434 1433 1432 1431
1443 1446 1447 1447 1446 1440 1430 1429 1431 1430 1426 1424 1423 1423 1424 1424 1424 1424 1425 1425 1425 1425 1426 1426 1426 1427 1427 1427 1428 1428 1428 1429 1430 1430 1431 1431 1432 1432 1432 1431 1431 1430 1429 1428
1440 1440 1440 1439 1437 1431 1429 1428 1427 1426 1425 1423 1423 1422 1423 1423 1423 1423 1423 1423 1424 1424 1425 1425 1425 1425 1425 1426 1426 1426 1427 1428 1428 1428 1429 1429 1430 1430 1430 1429 1428 1427 1426 1425
1438 1436 1437 1436 1432 1430 1429 1427 1426 1425 1424 1423 1422 1422 1422 1421 1422 1422 1422 1423 1423 1423 1424 1424 1424 1424 1424 1425 1425 1425 1426 1426 1426 1427 1427 1427 1427 1427 1427 1427 1426 1425 1424 1423
1438 1436 1435 1434 1431 1429 1428 1427 1426 1424 1423 1422 1422 1422 1421 1421 1421 1421 1421 1422 1422 1423 1423 1423 1423 1423 1423 1424 1424 1424 1424 1425 1424 1425 1425 1425 1425 1425 1425 1425 1424 1423 1422 1421
1436 1436 1435 1432 1430 1430 1428 1426 1425 1424 1422 1422 1421 1421 1421 1421 1420 1421 1421 1421 1422 1422 1422 1422 1423 1423 1423 1423 1423 1423 1423 1423 1423 1423 1423 1423 1424 1423 1423 1423 1422 1421 1421 1419